[[{"header":{"parameterUnit":"m.s-1","parameterCategory":1,"la1":30.2991,"la2":30.254,"lo1":-89.0895,"lo2":-89.0444,"dx":0.0017,"dy":0.0017,"nx":28,"ny":28,"refTime":"2023-01-27T09:00:00:Z","depth":0,"parameterNumber":2,"parameterNumberName":"U-component_of_WINDS"},"data":[0,0,0,0,0,0,0,0,0,0,0,0,0,0,0,0,0,0,0,0,0,0,0,0,0,0,0,0,0,0,0,0,0,0,0,0,0,0,0,0,0,0,0,0,0,0,0,0,0,0,0,0,0,0,0,0,0,0,-2.972,-2.972,0,-2.9769,-2.977,-2.977,-2.9699,-2.9696,-2.9694,-2.9692,-2.9742,-2.9745,-2.9749,0,0,0,0,0,0,0,0,0,0,0,0,0,-2.9564,-2.9567,-2.972,-2.972,-2.9721,-2.9769,-2.977,-2.977,-2.9699,-2.9696,-2.9693,-2.969,-2.974,-2.9745,-2.9749,0,0,0,0,0,0,0,0,0,0,0,0,0,-2.9624,-2.9568,-2.972,-2.9691,-2.9689,-2.9769,-2.977,-2.977,-2.97,-2.9696,-2.9693,-2.9689,-2.9739,-2.9744,-2.975,-2.9859,0,0,-2.9767,-2.9769,0,0,0,0,0,0,0,0,-2.9621,-2.963,-2.9695,-2.9693,-2.9691,-2.9724,-2.9733,-2.98,-2.9701,-2.9696,-2.9692,-2.9687,-2.9739,-2.9744,-2.9762,-2.9861,-2.9864,-2.9767,-2.977,-2.9773,-2.9774,0,0,0,0,0,0,0,-2.9617,-2.9628,-2.9739,-2.9696,-2.9694,-2.9676,-2.9681,-2.9745,-2.9738,-2.9696,-2.9691,-2.9698,-2.9737,-2.9756,-2.9762,-2.9864,-2.9767,-2.9772,-2.9775,-2.9777,-3.0056,-3.006,0,0,0,0,0,0,-2.9616,-2.9625,-2.9738,-2.9741,-2.9646,-2.9682,-2.9687,-2.9717,-2.9737,-2.9736,-2.9701,-2.9694,-2.9749,-2.9756,-2.9764,-2.9893,-2.9773,-2.9778,-2.9781,-3.0052,-3.0057,-3.0062,0,0,0,0,0,0,-2.9613,-2.9627,-2.9736,-2.9681,-2.9694,-2.9689,-2.9723,-2.972,-2.9739,-2.9741,-2.9739,-2.9722,-2.9746,-2.9756,-2.9836,-2.9894,-2.978,-2.9785,-3.0048,-3.0054,-3.006,-3.0153,0,0,0,0,0,0,-2.9609,-2.9626,-2.9668,-2.9683,-2.9697,-2.9807,-2.9727,-2.9724,-2.9749,-2.9741,-2.976,-2.976,-2.9744,-2.9828,-2.9841,-2.9899,-2.979,-3.0042,-3.005,-3.0058,-3.0145,-3.0162,-3.0176,0,0,0,0,0,-2.9604,-2.9692,-2.967,-2.9684,-2.9749,-2.9811,-2.9819,-2.9799,-2.9754,-2.9796,-2.9797,-2.9759,-2.9885,-2.9837,-2.9851,-2.9912,-3.0039,-3.0048,-3.0057,-3.0138,-3.0158,-3.0176,0,0,0,0,0,0,-2.9683,-2.9693,-2.9669,-2.9765,-2.9788,-2.9799,-2.9851,-2.9822,-2.9857,-2.9848,-2.9822,-2.9827,-2.9913,-2.992,-2.9866,-3.0019,-2.9954,-2.9967,-3.0011,-3.003,-3.0046,-3.0042,-2.9794,0,0,0,0,0,-2.9712,-2.9762,-2.9768,-2.9852,-2.9864,-2.9856,-2.9882,-2.9865,-2.9887,-2.9897,-2.9903,-2.9926,-2.9971,-3.0001,-3.0042,-3.0145,-3.0149,-3.0194,-3.021,-3.0223,-3.0234,-3.0289,-3.031,-3.0092,-3.0092,-3.0092,0,0,-2.9772,-2.9784,-2.9817,-2.9868,-2.9884,-2.9936,-2.9864,-2.9922,-2.9961,-2.9905,-2.9981,-2.9987,-3.0011,-3.0103,-3.0144,-3.0112,-3.0295,-3.0234,-3.0245,-3.0249,-3.0301,-3.0322,-3.034,-3.0098,-3.0097,-3.0096,0,0,-2.9908,-2.9922,-2.9994,-3.0011,-3.0035,-3.0029,-3.0046,-3.0062,-3.0064,-3.014,-3.0099,-3.0145,-3.0222,-3.0241,-3.0261,-3.0405,-3.0372,-3.0419,-3.0501,-3.0555,-3.0572,-3.0587,-3.0639,-3.0658,-3.043,-3.043,-3.043,0,-2.998,-3.0057,-3.0034,-3.0095,-3.0119,-3.0072,-3.0144,-3.0162,-3.0199,-3.0216,-3.018,-3.0276,-3.0289,-3.0385,-3.0421,-3.0438,-3.0457,-3.0417,-3.0572,-3.0587,-3.06,-3.0649,-3.0669,-3.0436,-3.0435,-3.0435,-3.0434,0,-3.0143,-3.0198,-3.0253,-3.029,-3.032,-3.0386,-3.0374,-3.0407,-3.0387,-3.0385,-3.0463,-3.0477,-3.052,-3.0542,-3.0523,-3.0636,-3.0615,-3.0576,-3.0511,-3.0627,-3.0673,-3.0691,-3.0444,-3.0442,-3.044,-3.0439,0,0,-3.0331,-3.0355,-3.0376,-3.0392,-3.0416,-3.0457,-3.0522,-3.0565,-3.0594,-3.0621,-3.0674,-3.0742,-3.0705,-3.0728,-3.0711,-3.0759,-3.0872,-3.0713,-3.0713,-3.0743,-3.0998,-3.1027,-3.1049,-3.085,-3.0854,-3.0857,-3.0996,0,-3.0467,-3.0579,-3.056,-3.0669,-3.0719,-3.0674,-3.073,-3.0751,-3.0751,-3.0793,-3.0792,-3.0841,-3.0789,-3.0802,-3.0848,-3.0849,-3.0923,-3.0838,-3.09,-3.0903,-3.0896,-3.1073,-3.1105,-3.1235,-3.1013,-3.1016,-3.1018,0,-3.064,-3.0675,-3.0788,-3.0804,-3.0825,-3.0876,-3.0914,-3.0954,-3.0977,-3.0973,-3.0999,-3.0973,-3.1038,-3.0972,-3.106,-3.1003,-3.1027,-3.1032,-3.1036,-3.1041,-3.0968,-3.1084,-3.1277,-3.1296,-3.1046,-3.1044,-3.1042,0,-3.0767,-3.0841,-3.0918,-3.0934,-3.0955,-3.0992,-3.1002,-3.1021,-3.1048,-3.1081,-3.1098,-3.1138,-3.1161,-3.1192,-3.1178,-3.1131,-3.127,-3.1202,-3.1268,-3.1269,-3.13,-3.1298,-3.15,-3.1315,-3.1315,-3.1314,-3.1314,0,-3.092,-3.0992,-3.0975,-3.1023,-3.1101,-3.108,-3.1158,-3.1163,-3.118,-3.1228,-3.1192,-3.1238,-3.1216,-3.1261,-3.125,-3.1325,-3.1335,-3.1334,-3.133,-3.1338,-3.1338,-3.1353,-3.1344,-3.1319,-3.1318,-3.1317,-3.1316,0,-3.1074,-3.1066,-3.1148,-3.1161,-3.1166,-3.1224,-3.1235,-3.128,-3.1277,-3.1338,-3.1351,-3.1346,-3.1397,-3.1386,-3.1441,-3.1433,-3.1528,-3.1513,-3.1521,-3.1517,-3.1584,-3.1578,-3.1803,-3.1832,-3.1628,-3.163,-3.1632,0,-3.1173,-3.1227,-3.1247,-3.1276,-3.129,-3.1338,-3.1366,-3.1346,-3.1376,-3.1407,-3.1448,-3.1495,-3.1532,-3.1614,-3.1616,-3.1658,-3.1643,-3.1719,-3.1649,-3.1655,-3.1645,-3.1642,-3.1647,-3.1733,-3.1735,-3.1737,-3.1739,0,-3.135,-3.1343,-3.1385,-3.1425,-3.1459,-3.149,-3.1517,-3.1543,-3.1526,-3.1562,-3.1613,-3.1642,-3.1698,-3.1745,-3.1784,-3.1795,-3.1765,-3.1761,-3.1778,-3.1786,-3.1789,-3.1789,-3.1559,-3.1756,-3.1754,-3.1753,-3.1752,-3.1751,-3.148,-3.1526,-3.1547,-3.1594,-3.1613,-3.1639,-3.1682,-3.1685,-3.1727,-3.1772,-3.1757,-3.1816,-3.1837,-3.1887,-3.1902,-3.1947,-3.1919,-3.1944,-3.1951,-3.1957,-3.1966,-3.1782,-3.1954,-3.1954,-3.1953,-3.1953,-3.1952,0,-3.1655,-3.1666,-3.171,-3.1749,-3.1787,-3.1755,-3.1784,-3.1817,-3.1869,-3.1892,-3.1929,-3.1988,-3.2034,-3.2039,-3.2082,-3.2118,-3.2105,-3.213,-3.2127,-3.213,-3.1989,-3.1969,-3.2139,-3.2139,-3.2139,-3.2139,-3.2139,-3.2139,-3.175,-3.1826,-3.1822,-3.1908,-3.1918,-3.1976,-3.1995,-3.2019,-3.2037,-3.2105,-3.2143,-3.2146,-3.2162,-3.2206,-3.2247,-3.2247,-3.2265,-3.2295,-3.2291,-3.2158,-3.214,-3.2122,-3.2104,-3.2299,-3.23,-3.2428,-3.2429,-3.243]},{"header":{"parameterUnit":"m.s-1","parameterCategory":1,"la1":30.2991,"la2":30.254,"lo1":-89.0895,"lo2":-89.0444,"dx":0.0017,"dy":0.0017,"nx":28,"ny":28,"refTime":"2023-01-27T09:00:00:Z","depth":0,"parameterNumber":3,"parameterNumberName":"V-component_of_WINDS"},"data":[0,0,0,0,0,0,0,0,0,0,0,0,0,0,0,0,0,0,0,0,0,0,0,0,0,0,0,0,0,0,0,0,0,0,0,0,0,0,0,0,0,0,0,0,0,0,0,0,0,0,0,0,0,0,0,0,0,0,-1.0004,-1.0005,0,-1.005,-1.005,-1.0051,-1.002,-1.0018,-1.0017,-1.0015,-1.0064,-1.0067,-1.0069,0,0,0,0,0,0,0,0,0,0,0,0,0,-0.9891,-0.9893,-1.0004,-1.0005,-1.0005,-1.005,-1.005,-1.0051,-1.002,-1.0018,-1.0016,-1.0015,-1.0063,-1.0066,-1.0069,0,0,0,0,0,0,0,0,0,0,0,0,0,-0.9938,-0.9894,-1.0004,-0.9995,-0.9995,-1.005,-1.005,-1.0051,-1.002,-1.0018,-1.0016,-1.0014,-1.0062,-1.0066,-1.007,-1.0137,0,0,-1.0082,-1.0083,0,0,0,0,0,0,0,0,-0.9936,-0.9943,-0.9996,-0.9996,-0.9995,-1.0027,-1.0028,-1.008,-1.0021,-1.0011,-1.0015,-1.0013,-1.0053,-1.0058,-1.0071,-1.0139,-1.0141,-1.0082,-1.0085,-1.0086,-1.0087,0,0,0,0,0,0,0,-0.9933,-0.9941,-1.0022,-0.9997,-0.9996,-0.9989,-0.9993,-1.0038,-1.0043,-1.0011,-1.0009,-1.0015,-1.0053,-1.0068,-1.0072,-1.0142,-1.0082,-1.0086,-1.0088,-1.0089,-1.0266,-1.0269,0,0,0,0,0,0,-0.993,-0.9938,-1.0021,-1.0024,-0.996,-0.9993,-0.9998,-1.0019,-1.0043,-1.0044,-1.0017,-1.0013,-1.0062,-1.0068,-1.0074,-1.0154,-1.0086,-1.009,-1.0092,-1.0264,-1.0267,-1.027,0,0,0,0,0,0,-0.9928,-0.9937,-1.0019,-0.998,-0.999,-0.9997,-1.0021,-1.0021,-1.0035,-1.0047,-1.0048,-1.0031,-1.006,-1.0068,-1.0121,-1.0155,-1.0092,-1.0095,-1.0261,-1.0265,-1.0268,-1.0314,0,0,0,0,0,0,-0.9924,-0.9937,-0.9962,-0.9981,-0.9992,-1.0065,-1.0023,-1.0023,-1.0042,-1.0038,-1.006,-1.0062,-1.0059,-1.0115,-1.0125,-1.0159,-1.0098,-1.0258,-1.0263,-1.0267,-1.031,-1.0319,-1.0327,0,0,0,0,0,-0.992,-0.9974,-0.9964,-0.9974,-1.0024,-1.0067,-1.0074,-1.0069,-1.0045,-1.0071,-1.0078,-1.0061,-1.015,-1.0121,-1.0132,-1.0168,-1.0256,-1.0262,-1.0267,-1.0306,-1.0317,-1.0327,0,0,0,0,0,0,-0.996,-0.9976,-0.9965,-1.0026,-1.0045,-1.0062,-1.0094,-1.0081,-1.0109,-1.0104,-1.0098,-1.0103,-1.0158,-1.0168,-1.0136,-1.0234,-1.0199,-1.0207,-1.0225,-1.0236,-1.0244,-1.0241,-1.0102,0,0,0,0,0,-0.9975,-1.0009,-1.0021,-1.0074,-1.0084,-1.0088,-1.0106,-1.0101,-1.0121,-1.013,-1.0141,-1.0161,-1.0194,-1.0215,-1.0246,-1.0311,-1.0315,-1.0341,-1.0349,-1.0356,-1.0363,-1.0399,-1.041,-1.0287,-1.0287,-1.0287,0,0,-1.0008,-1.0021,-1.0043,-1.0082,-1.0096,-1.0132,-1.0095,-1.0134,-1.016,-1.0136,-1.0186,-1.0195,-1.0218,-1.0277,-1.0304,-1.0287,-1.0398,-1.0363,-1.0368,-1.0372,-1.0405,-1.0417,-1.0427,-1.029,-1.029,-1.0289,0,0,-1.0086,-1.0099,-1.0144,-1.0159,-1.0181,-1.0183,-1.0194,-1.0212,-1.0217,-1.0267,-1.025,-1.0281,-1.0337,-1.0354,-1.037,-1.0453,-1.0439,-1.0463,-1.0508,-1.0543,-1.0552,-1.0561,-1.0591,-1.0602,-1.047,-1.047,-1.047,0,-1.0124,-1.0176,-1.0169,-1.0209,-1.0227,-1.0206,-1.0252,-1.0267,-1.0298,-1.0311,-1.0291,-1.0361,-1.0375,-1.0438,-1.0458,-1.0471,-1.0484,-1.0461,-1.0551,-1.056,-1.0568,-1.0597,-1.0608,-1.0473,-1.0472,-1.0472,-1.0472,0,-1.0222,-1.0258,-1.0292,-1.0322,-1.0344,-1.0387,-1.0386,-1.0409,-1.0402,-1.0406,-1.0458,-1.0473,-1.0506,-1.0521,-1.0514,-1.0583,-1.0572,-1.0552,-1.0517,-1.0583,-1.061,-1.0621,-1.0477,-1.0476,-1.0475,-1.0474,0,0,-1.0327,-1.0352,-1.0364,-1.0378,-1.04,-1.0428,-1.047,-1.0502,-1.0522,-1.0544,-1.0579,-1.0626,-1.0608,-1.0626,-1.0621,-1.0651,-1.0717,-1.0628,-1.0628,-1.0644,-1.0794,-1.081,-1.0823,-1.0707,-1.0709,-1.0711,-1.0792,0,-1.0406,-1.0479,-1.0474,-1.0542,-1.0576,-1.0556,-1.0592,-1.061,-1.0615,-1.0644,-1.0649,-1.0683,-1.0656,-1.0667,-1.0696,-1.0703,-1.0747,-1.0697,-1.0741,-1.0742,-1.0737,-1.0837,-1.0853,-1.093,-1.0803,-1.0805,-1.0806,0,-1.0509,-1.0534,-1.0606,-1.0623,-1.0637,-1.067,-1.0699,-1.0727,-1.0746,-1.0748,-1.0767,-1.0757,-1.08,-1.0763,-1.0822,-1.0788,-1.0806,-1.0812,-1.0815,-1.0819,-1.0779,-1.0845,-1.0954,-1.0966,-1.0822,-1.0821,-1.082,0,-1.0579,-1.0631,-1.068,-1.0692,-1.0713,-1.0737,-1.0747,-1.0765,-1.0784,-1.0809,-1.0822,-1.0851,-1.0868,-1.0892,-1.089,-1.0863,-1.095,-1.0913,-1.0953,-1.0953,-1.0973,-1.0972,-1.1087,-1.0983,-1.0983,-1.0982,-1.0982,0,-1.0669,-1.0714,-1.0712,-1.0743,-1.0793,-1.0786,-1.0836,-1.0843,-1.0859,-1.0891,-1.0875,-1.0905,-1.0901,-1.0932,-1.093,-1.098,-1.0987,-1.099,-1.0989,-1.0992,-1.0992,-1.1004,-1.0999,-1.0985,-1.0985,-1.0984,-1.0984,0,-1.0757,-1.0757,-1.081,-1.0825,-1.083,-1.0866,-1.0879,-1.0908,-1.0911,-1.0952,-1.0961,-1.0966,-1.1001,-1.1001,-1.1042,-1.1041,-1.1102,-1.1094,-1.1095,-1.1094,-1.1134,-1.1131,-1.1262,-1.1279,-1.1163,-1.1164,-1.1165,0,-1.0814,-1.0848,-1.0867,-1.0887,-1.0898,-1.0931,-1.095,-1.0945,-1.0966,-1.0991,-1.1017,-1.1051,-1.1078,-1.1135,-1.1142,-1.1173,-1.1167,-1.1211,-1.1172,-1.1174,-1.1169,-1.1168,-1.1171,-1.1219,-1.1221,-1.1222,-1.1223,0,-1.0917,-1.0916,-1.0944,-1.0973,-1.0996,-1.1019,-1.1039,-1.1057,-1.1054,-1.1078,-1.1114,-1.1134,-1.1175,-1.1209,-1.1239,-1.1249,-1.1236,-1.1235,-1.1246,-1.1249,-1.1249,-1.125,-1.1117,-1.1232,-1.1231,-1.123,-1.123,-1.123,-1.0992,-1.1022,-1.1039,-1.1072,-1.1086,-1.1106,-1.1134,-1.114,-1.1169,-1.1202,-1.1197,-1.1237,-1.1256,-1.1294,-1.1307,-1.1338,-1.1323,-1.1339,-1.1343,-1.1348,-1.1352,-1.1243,-1.1344,-1.1343,-1.1343,-1.1343,-1.1343,0,-1.1095,-1.1105,-1.1135,-1.1164,-1.119,-1.1173,-1.1195,-1.1218,-1.1253,-1.1271,-1.1298,-1.1339,-1.1371,-1.1381,-1.1412,-1.1436,-1.143,-1.1444,-1.1443,-1.1446,-1.1364,-1.1351,-1.1448,-1.1448,-1.1448,-1.1448,-1.1448,-1.1448,-1.1152,-1.1201,-1.1201,-1.1257,-1.1267,-1.1305,-1.1319,-1.1338,-1.1352,-1.1398,-1.1425,-1.1431,-1.1446,-1.1478,-1.1508,-1.151,-1.1523,-1.1539,-1.1539,-1.1462,-1.1452,-1.1442,-1.143,-1.1542,-1.1542,-1.1619,-1.1619,-1.162]}]]